Location: *
(34.6780°N, 135.8310°E)
Time: 15:51:35
(UTC+00:00)

Daily predictions for brighter satellites

Satellite Brightness Start Highest point End
(mag) Time Altitude Azimuth Time Altitude Azimuth Time Altitude Azimuth
ATLAS 2AS CENTAUR R/B 3.5 17:56:57 56° ESE 17:56:57 56° ESE 18:04:22 10° NE
Cosmos 2333 Rocket 4.0 18:13:46 25° NNE 18:13:46 25° NNE 18:15:59 10° NNE
IDEFIX/ARIANE 42P 3.6 18:30:56 10° NNE 18:34:16 40° NNE 18:34:16 40° NNE
Cosmos 2219 Rocket 3.6 18:39:31 26° N 18:39:31 26° N 18:41:58 10° NNE
USA 267 4.3 18:31:42 10° NNE 18:36:14 30° NNW 18:36:14 30° NNW
BREEZE-M DEB (TANK) 4.3 18:42:33 26° E 18:42:33 26° E 18:43:47 10° E
H-2A R/B 4.0 18:39:49 10° NNE 18:42:32 34° NE 18:42:32 34° NE
Cosmos 2237 Rocket 2.5 18:44:47 51° SSE 18:45:55 62° ESE 18:51:32 10° NNE
Cosmos 2181 Rocket 4.0 18:43:49 10° N 18:50:10 83° E 18:56:24 10° S
MSX 3.9 18:49:09 10° NNE 18:54:53 73° ESE 18:59:29 16° S
COSMOS 2428 4.0 19:03:41 25° NNW 19:03:41 25° NNW 19:06:31 10° N
Cosmos 1980 3.5 19:02:04 63° SSW 19:03:01 86° WNW 19:08:43 10° NNE
NOSS 3-4 (A) 3.2 19:06:08 59° WSW 19:07:11 74° WNW 19:13:25 10° NNE
NOSS 3-4 (C) 3.2 19:06:09 59° WSW 19:07:17 75° WNW 19:13:31 10° NNE
USA 234 3.7 19:01:18 10° ESE 19:07:43 60° NE 19:12:47 17° NNW
Cosmos 1190 Rocket 4.0 19:07:36 33° S 19:10:05 83° ESE 19:15:24 10° NNE
Cosmos 407 Rocket 3.3 19:10:11 54° SSW 19:11:22 83° WNW 19:16:32 10° NNE
CZ-2C R/B 2.6 19:12:36 10° NNE 19:17:48 75° ESE 19:22:54 10° S
CZ-4B R/B 3.6 19:14:11 10° NNE 19:18:02 51° E 19:21:41 10° S
Cosmos 921 Rocket 2.9 19:16:03 31° N 19:18:03 81° ENE 19:22:15 10° SSE
Cosmos 292 Rocket 3.8 19:17:59 10° NNW 19:22:48 78° ENE 19:27:36 10° SSE
Cosmos 44 4.3 19:19:36 11° NNW 19:23:25 39° ENE 19:27:28 10° SE
Cosmos 1953 3.5 19:22:24 10° N 19:26:15 43° E 19:30:03 10° SSE
ADEOS 4.4 19:24:25 10° N 19:28:10 32° NW 19:28:10 32° NW
ATLAS 3B R/B 3.5 19:23:46 10° NNW 19:30:17 50° NE 19:36:57 10° SE
USA 32 4.1 19:25:20 10° SSW 19:30:25 54° W 19:35:33 10° N
Milstar 3 Cent rocket 3.5 19:28:38 17° SSW 19:31:48 27° SSE 19:35:48 10° ESE
Fregat R/B Cluster 11 4.3 19:32:39 39° NW 19:32:39 39° NW 19:37:39 10° NNE
Meteor PRIRODA 4.5 19:29:32 10° NNE 19:33:11 51° E 19:36:48 10° S
Cosmos 1758 3.1 19:30:34 10° N 19:34:34 73° W 19:38:34 10° S
Cosmos 2154 Rocket 4.0 19:30:57 10° S 19:37:09 82° E 19:43:21 10° N
Cosmos 2327 Rocket 4.4 19:30:56 10° S 19:37:13 80° W 19:43:25 10° N
Milstar 3 3.9 19:32:55 15° SW 19:37:59 35° SSE 19:44:13 10° E
BREEZE-M DEB (TANK) 4.0 19:24:38 10° SW 19:38:32 59° SE 19:42:05 10° ENE
SL-16 R/B 2.6 19:33:17 10° S 19:38:50 63° ESE 19:44:26 10° NNE
CENTAUR R/B 3.5 19:34:11 10° NNW 19:42:27 71° ENE 19:51:10 10° SE
Cosmos 1610 Rocket 4.4 19:39:29 10° S 19:45:44 77° W 19:52:05 10° N
Cosmos 1892 Rocket 4.0 19:41:28 10° S 19:45:51 66° E 19:50:14 10° NNE
Cosmos 2184 Rocket 4.1 19:40:53 10° SSW 19:46:50 48° W 19:52:52 10° N
Meteor 1-31 Rocket 2.7 19:43:44 10° N 19:47:28 57° WNW 19:51:10 10° SSW
ATLAS 2AS CENTAUR R/B 3.7 19:44:26 24° W 19:47:53 34° NW 19:55:02 10° NNE
Cosmos 1707 3.0 19:45:40 19° SW 19:48:09 44° W 19:51:55 10° N
Cosmos 1954 Rocket 3.9 19:42:54 10° SSW 19:48:09 80° WNW 19:53:23 10° NNE
RESURS DK-1 2.3 19:44:53 10° SSW 19:49:00 89° ESE 19:53:09 10° NNE
GP-B 3.6 19:48:52 10° SSE 19:53:14 63° E 19:57:38 10° N
Cosmos 1470 3.1 19:51:11 10° NNW 19:54:49 38° W 19:58:25 10° SSW
Cosmos 2278 Rocket 2.2 19:49:20 10° NNW 19:54:55 60° WSW 20:00:28 10° S
Cosmos 2333 Rocket 4.0 19:55:49 12° NW 19:55:49 12° NW 19:57:37 10° NNW
Cosmos 1140 Rocket 3.7 19:50:49 10° SW 19:55:48 47° WNW 20:00:47 10° N
USA 238 DEB 4.3 19:50:55 11° NW 19:57:16 40° WSW 20:04:05 10° S
USA 238 4.3 19:50:58 11° NW 19:57:23 40° WSW 20:04:12 10° S
Cosmos 2341 Rocket 4.2 19:55:47 10° S 20:02:01 75° E 20:08:14 10° N
Nadezhda 3 Rocket 4.0 19:56:30 10° N 20:02:53 84° W 20:09:12 10° S
Cosmos 1606 Rocket 3.4 19:59:47 10° N 20:04:06 73° W 20:08:23 10° S
Cosmos 1484 Rocket 2.7 20:00:24 10° NNE 20:04:13 90° S 20:08:04 10° SSW
CZ-4B R/B 4.4 20:01:12 10° N 20:04:54 36° WNW 20:08:45 10° SW
SJ-12 4.3 20:01:02 10° NNE 20:05:06 67° E 20:09:11 10° S
Meteor 2-5 Rocket 4.3 20:02:15 10° S 20:07:55 66° E 20:13:44 10° NNE
Cosmos 1726 3.0 20:04:42 10° N 20:08:17 51° E 20:11:51 10° SSE
Meteor 1-4 Rocket 3.2 20:05:38 10° SW 20:08:46 30° WNW 20:11:53 10° NNW
Cosmos 1674 2.9 20:10:21 10° S 20:14:01 71° E 20:17:44 10° N
IDEFIX/ARIANE 42P 4.3 20:13:09 10° NW 20:15:04 12° WNW 20:15:05 12° WNW
Okean 1-7 Rocket 3.7 20:11:38 10° SSW 20:15:57 52° W 20:20:20 10° N
H-2A R/B 4.3 20:17:09 10° NW 20:18:58 13° WNW 20:19:06 13° WNW
PSLV R/B 3.0 20:19:18 17° W 20:21:03 46° NNW 20:23:38 10° ENE
Cosmos 1626 Rocket 4.4 20:18:30 10° S 20:22:42 53° E 20:26:54 10° NNE
COSMO-SKYMED 1 2.5 20:21:50 10° S 20:26:10 78° WSW 20:30:31 10° NNW
Cosmos 1741 Rocket 4.1 20:21:03 10° SSW 20:26:21 87° ESE 20:31:43 10° NNE
Cosmos 389 Rocket 4.4 20:27:48 11° WNW 20:27:49 11° WNW 20:28:45 10° WNW
Cosmos 2237 Rocket 3.7 20:26:49 10° W 20:30:25 17° NW 20:34:02 10° NNW
SL-8 Rocket 4.0 20:26:36 10° S 20:32:49 86° W 20:39:01 10° N
CZ-4B DEB 4.3 20:32:59 10° N 20:38:17 53° WNW 20:43:33 10° SSW
SeaSat 1 3.1 20:34:03 10° NNE 20:38:56 61° ESE 20:43:47 10° SSW
Centaur D-1AR AC-39 3.9 20:36:40 10° SW 20:40:09 25° SSE 20:48:09 10° ESE
Cosmos 2366 rocket 4.2 20:34:29 10° S 20:40:50 85° E 20:47:13 10° N
